Tracking 19576 objects as of 17-Feb-2019
HD Live streaming from Space Station
objects crossing your sky now

COSMOS 718

Track COSMOS 718 now!
10-day predictions
COSMOS 718 is classified as:


NORAD ID: 7685
Int'l Code: 1975-016H
Perigee: 1,436.1 km
Apogee: 1,495.8 km
Inclination: 74.0 °
Period: 115.1 minutes
Semi major axis: 7836 km
RCS: 0.6831 m2 (medium)
Launch date: February 28, 1975
Source: Commonwealth of Independent States (former USSR) (CIS)
Launch site: PLESETSK MISSILE AND SPACE COMPLEX (PKMTR)
aabbcc
Your satellite tracking list
Your tracking list is empty




NASA's NSSDC Master Catalog

Two Line Element Set (TLE):
1  7685U 75016H   19047.88171118 -.00000022  00000-0 -37731-4 0  9992
2  7685  74.0030 192.0093 0038093  93.3754  19.4819 12.51350125  8702
Source of the keplerian elements: AFSPC